Location: Days
(41.3591°N, 106.7339°W)
Time: 06:58:28
(UTC+00:00)

First-Move - Pass Details

Date: 08 July 2022
Orbit: 572 x 658 km, 97.6° (Epoch: 11 August)

Event Time Altitude Azimuth Distance (km) Brightness Sun altitude
Rises 11:04:39 0° 13° (NNE) 2,979 ? -6.5°
Reaches altitude 10° 11:06:53 10° 15° (NNE) 2,071 ? -6.2°
Maximum altitude 11:11:25 77° 102° (ESE) 680 ? -5.5°
Drops below altitude 10° 11:15:57 10° 189° (S) 2,066 ? -4.8°
Sets 11:18:09 0° 190° (S) 2,971 ? -4.5°
